Home > Weather > San Bernardino > Past weeks

Flag for USA Past Weather in San Bernardino, California, USA — Yesterday and Last 2 Weeks

Now
95 °F

Sunny.


Feels Like: 94 °F
Forecast: 68 / 100 °F
Wind: 12 mph from West

Location: Riverside Municipal Airport

Current Time: Jun 26, 2016 at 5:33:45 PM

Latest Report: Jun 26, 2016 at 4:53 PM


Visibility: 10 mi

Pressure: 29.78 "Hg

Humidity: 28%

Dew Point: 57 °F

Location of San BernardinoLocation

Past Weather in San Bernardino — Graph

°F

San Bernardino Temperature Yesterday

Maximum temperature yesterday: 93 °F (at 1:53 PM)
Minimum temperature yesterday: 61 °F (at 5:53 AM)
Average temperature yesterday: 75 °F

High & Low Weather Summary for the Past Weeks

 TemperatureHumidityPressure
High113 °F (Jun 20, 12:53 PM)87% (Jun 14, 4:53 AM)30.09 "Hg (Jun 14, 4:53 AM)
Low57 °F (Jun 14, 3:53 AM)4% (Jun 19, 12:53 PM)29.75 "Hg (Jun 25, 3:53 PM)
Average76 °F48%29.90 "Hg
* Reported Jun 11 3:00 PM — Jun 26 3:53 PM, San Bernardino, Weather by CustomWeather, © 2016

Note: Actual official high and low records may vary slightly from our data, if they occured in-between our weather recording intervals... More about our weather records

Advertising

San Bernardino Weather History for the Previous 24 Hours

Scroll right to see more
 ConditionsComfort  
Time TempWeatherWind HumidityBarometerVisibility
3:53 PM
Sun, Jun 26
99 °FSunny.12 mph24%29.78 "Hg10 mi
2:53 PM99 °FSunny.12 mph23%29.79 "Hg10 mi
1:53 PM99 °FSunny.13 mph24%29.80 "Hg10 mi
12:53 PM99 °FPassing clouds.10 mph27%29.81 "Hg10 mi
11:53 AM93 °FSunny.8 mph28%29.83 "Hg10 mi
10:53 AM88 °FSunny.5 mph38%29.83 "Hg9 mi
9:53 AM81 °FSunny.3 mph47%29.84 "Hg9 mi
8:53 AM75 °FSunny.3 mph58%29.85 "Hg8 mi
7:53 AM71 °FSunny.3 mph66%29.84 "Hg8 mi
6:53 AM67 °FSunny.No wind76%29.84 "Hg7 mi
5:53 AM65 °FClear.No wind78%29.83 "Hg7 mi
4:53 AM66 °FClear.No wind75%29.82 "Hg9 mi
3:53 AM66 °FClear.No wind78%29.82 "Hg9 mi
2:53 AM68 °FClear.No wind73%29.82 "Hg10 mi
1:53 AM68 °FClear.No wind70%29.82 "Hg9 mi
12:53 AM70 °FClear.3 mph68%29.83 "Hg10 mi
11:53 PM
Sat, Jun 25
71 °FClear.No wind63%29.84 "Hg10 mi
10:53 PM73 °FClear.No wind62%29.84 "Hg10 mi
9:53 PM73 °FClear.5 mph62%29.83 "Hg10 mi
8:53 PM75 °FSunny.6 mph58%29.81 "Hg10 mi
7:53 PM78 °FSunny.7 mph52%29.79 "Hg10 mi
6:53 PM82 °FSunny.9 mph44%29.78 "Hg10 mi
5:53 PM86 °FSunny.12 mph39%29.75 "Hg10 mi
Weather by CustomWeather, © 2016

See weather overviewHow to use our weather pages